Regional Weather Roundup
Issued by NWS

Home | Current Version | Previous Version | Graphics & Text | Print | Product List | Glossary On
Versions: 1 2 3 4 5 6 7 8 9 10 11 12 13 14 15 16 17 18 19 20 21 22 23 24 25 26 27 28 29 30 31 32 33 34 35 36 37 38 39 40 41 42 43 44 45 46 47 48 49 50
000
ASUS45 KBOU 101507
RWRCO

WEATHER ROUNDUP FOR COLORADO
NATIONAL WEATHER SERVICE DENVER/BOULDER CO
800 AM MST WED FEB 10 2016

NOTE: "FAIR" INDICATES FEW OR NO CLOUDS BELOW 12000 FEET WITH NO
SIGNIFICANT WEATHER AND/OR OBSTRUCTIONS TO VISIBILITY.

COZ001>005-013-030-031-101600-
...NORTHWEST COLORADO...

CITY           SKY/WX    TMP DP  RH WIND       PRES   REMARKS
CRAIG          FOG       -3  -7  82 W5        30.43F VSB 1/4 WCI -13
HAYDEN         CLOUDY    16   9  73 E12       30.41F WCI   3
MEEKER         CLOUDY     5   1  83 E3        30.43F
MOUNT WERNER   NOT AVBL
STEAMBOAT SPGS CLOUDY     9   5  86 CALM      30.44F
WALDEN         CLOUDY    10   1  67 SE10      30.39F WCI  -3
$$

COZ006>008-011-101600-
...WEST CENTRAL VALLEYS...

CITY           SKY/WX    TMP DP  RH WIND       PRES   REMARKS
GRAND JUNCTION CLOUDY    18  16  92 CALM      30.46S
MONTROSE       CLOUDY    18  11  74 SE8       30.50R WCI   8
EAGLE          CLEAR      7   7 100 CALM      30.57R
RIFLE          CLOUDY    13   8  81 SE3       30.50R
DELTA          CLOUDY    25  20  83 CALM      30.50R
NUCLA          CLOUDY    23  16  74 E3        30.51R
$$

COZ017>023-064>068-101600-
...SOUTHWEST COLORADO...

CITY           SKY/WX    TMP DP  RH WIND       PRES   REMARKS
DURANGO        CLOUDY    18   9  68 N6        30.45R WCI  10
CORTEZ         CLOUDY    19  14  81 NE6       30.47R WCI  11
PAGOSA SPRINGS CLOUDY    16   7  69 CALM      30.46S
TELLURIDE      CLOUDY    29   2  30 SE7       30.51R WCI  22
WOLF CREEK PAS CLOUDY    32 -11  15 SW6       30.59R WCI  26
$$

COZ009-010-012-014-032>034-037-058>063-101600-
...CENTRAL COLORADO...

CITY           SKY/WX    TMP DP  RH WIND       PRES   REMARKS
ASPEN          CLOUDY    12   4  70 S5        30.46R WCI   4
BUENA VISTA    CLOUDY    20  10  64 CALM      30.42S
COPPER MTN     CLOUDY    28  -6  22 W21G26    30.50S WCI  15
BERTHOUD PASS  FAIR      21  12  68 NW29G40   30.46F WCI   3
COTTONWOOD PAS CLOUDY    41 -20   7 W13G22    30.43S
GUNNISON       CLOUDY   -11 -17  77 CALM      30.62R
KREMMLING      FOG      N/A N/A N/A CALM      30.56R VSB 1/4
LEADVILLE      CLOUDY    20  -4  34 NE12      30.45S WCI   8
MONARCH PASS   CLOUDY    25  -4  28 W33       30.59S WCI   7
SALIDA         NOT AVBL
SUNLIGHT       CLOUDY    30   9  40 CALM        N/A
WILKERSON PASS CLOUDY    30  -8  19 W10G18    30.46F WCI  21
$$

COZ069>075-101600-
...SAN LUIS VALLEY/SANGRE DE CRISTO MOUNTAINS...

CITY           SKY/WX    TMP DP  RH WIND       PRES   REMARKS
ALAMOSA        CLOUDY    16  13  88 CALM      30.46S
LA VETA PASS   CLOUDY    30   3  31 S13       30.44S WCI  20
SAGUACHE       CLOUDY    23  12  63 CALM      30.47S
$$

COZ035-036-038>040-101600-
...NORTHERN COLORADO FRONT RANGE...

CITY           SKY/WX    TMP DP  RH WIND       PRES   REMARKS
DENVER INTL AP CLOUDY    44  14  29 W13       30.18R
DMNS CITY PARK   N/A     50   8  18 SW5G10    30.19R
AURORA         NOT AVBL
FRONT RANGE AP MOSUNNY   41  14  33 MISG      30.18R
ERIE MUNI ARPT CLOUDY    52  13  21 W15       30.17R
BOULDER MUN AP CLOUDY    54  10  17 W9        30.18S
CENTENNIAL     CLOUDY    44  13  28 SW15      30.20R
BROOMFIELD     PTCLDY    54   9  16 W24       30.21R
FORT COLLINS   CLOUDY    48  16  27 NW3       30.15S
LONGMONT       CLOUDY    55  12  18 SW5       30.19R
$$

COZ041-046-047-076>085-087-088-101600-
...PIKES PEAK/PALMER DIVIDE AND SOUTHERN FOOTHILLS...

CITY           SKY/WX    TMP DP  RH WIND       PRES   REMARKS
COLO. SPRINGS  CLOUDY    44   7  21 N14       30.23S
A. F. ACADEMY  CLOUDY    39   4  23 E13       30.24S
SCHRIEVER AFB  FAIR      49   6  17 NW22G28   30.22S
ELLICOTT       LGT RAIN N/A N/A N/A N8        30.21S
FALCON         NOT AVBL
FORT CARSON    NOT AVBL
LIMON          CLOUDY    29  14  53 NW9       30.17S WCI  20
MONUMENT HILL  CLOUDY    34   7  32 SW12      30.26R WCI  25
TRINIDAD       CLOUDY    41  10  28 W16       30.26R
$$

COZ042>045-048>051-090-091-101600-
...NORTHEAST COLORADO...

CITY           SKY/WX    TMP DP  RH WIND       PRES   REMARKS
GREELEY ARPT   CLOUDY    21  18  86 CALM      30.15R
AKRON          CLOUDY    39  18  42 SW20      30.08S
BURLINGTON     CLOUDY    36  18  48 W14       30.09F
WRAY           CLOUDY    35  23  62 W12       30.06S WCI  26
STERLING       CLOUDY    32  25  74 S8        30.06S WCI  25
HOLYOKE        CLOUDY    37  27  65 W15       30.04S
FORT MORGAN    CLOUDY    33  22  64 W15       30.11R WCI  23
$$

COZ086-089-092>099-101600-
...SOUTHEAST COLORADO...

CITY           SKY/WX    TMP DP  RH WIND       PRES   REMARKS
PUEBLO         CLOUDY    45  14  28 W9        30.19S
LA JUNTA       CLOUDY    41  20  43 W12       30.17R
LAMAR          CLOUDY    34  25  69 W10       30.15R WCI  26
SPRINGFIELD      N/A     49  17  28 W15       30.16S
$$



USA.gov is the U.S. government's official web portal to all federal, state and local government web resources and services.